Location: Ladrillo (historical)
(32.8195°N, 117.2231°W)
Time: 02:56:31
(UTC+00:00)

Meteor 1-24 Rocket - Pass Details

Date: 29 October 2020
Orbit: 791 x 926 km, 81.3° (Epoch: 26 November)

Event Time Altitude Azimuth Distance (km) Brightness Sun altitude
Rises 12:05:32 0° 183° (S) 3,353 6.8 -25.5°
Reaches altitude 10° 12:07:53 10° 182° (S) 2,441 6.1 -25.0°
Maximum altitude 12:13:25 79° 97° (E) 879 3.8 -23.9°
Drops below altitude 10° 12:19:13 10° 11° (N) 2,548 6.3 -22.7°
Sets 12:21:43 0° 10° (N) 3,510 7.0 -22.1°
